Welcome to Northern Hawkes Bay. New Zealand.
PWS Header
      nz Flag



Hit Counter


W3C Valid W3C Valid logo


    Wairoa

Select any of the Stations below to visit their websites.










Historic Data from Weather Underground
Select the location of interest below. Wairoa is the default. Please have patience, this Data is slow to load in.
Northern Hawkes Bay Historical Data
Daily Summary for May 17, 2017 Units:  English    Metric   Both
« Previous Day
Next Day »
Daily Weekly Monthly Yearly Custom
  High: Low: Average:
Temperature: 68.2 °F 55.9 °F 61.5 °F
Dew Point: 59.5 °F 46.8 °F 53.2 °F
Humidity: 96% 64% 75%
Wind Speed: 11.4mph 0mph 1.5mph
Wind Gust: 19.7mph - -
Wind- - SE
Pressure: 30.2 in 29.8 in -
Precipitation: 0.04 in    
Historical Graphs
 
 
Tabular Data for May 17, 2017
Time Temperature Dew Point Pressure Wind Wind Speed Wind Gust Humidity Rainfall Rate (Hourly) solar
00:03 58.5 °F 47.1 °F 30.2 in Calm     66% 0 in 0 W/m2
00:08 58.3 °F 46.9 °F 30.2 in Calm     66% 0 in 0 W/m2
00:13 58.3 °F 47.5 °F 30.2 in Calm     67% 0 in 0 W/m2
00:18 58.1 °F 47.1 °F 30.2 in Calm     67% 0 in 0 W/m2
00:23 57.9 °F 46.9 °F 30.2 in Calm     67% 0 in 0 W/m2
00:28 58.1 °F 47.1 °F 30.2 in Calm     67% 0 in 0 W/m2
00:33 58.3 °F 46.9 °F 30.2 in Calm     66% 0 in 0 W/m2
00:38 58.1 °F 46.8 °F 30.2 in Calm     66% 0 in 0 W/m2
00:43 58.3 °F 46.9 °F 30.2 in Calm     66% 0 in 0 W/m2
00:48 58.3 °F 46.9 °F 30.2 in Calm     66% 0 in 0 W/m2
00:53 58.5 °F 47.1 °F 30.2 in Calm     66% 0 in 0 W/m2
00:58 58.5 °F 47.1 °F 30.2 in Calm     66% 0 in 0 W/m2
01:03 58.3 °F 46.9 °F 30.2 in Calm     66% 0 in 0 W/m2
01:09 58.1 °F 46.8 °F 30.2 in Calm     66% 0 in 0 W/m2
01:14 58.1 °F 46.8 °F 30.2 in Calm     66% 0 in 0 W/m2
01:19 58.5 °F 47.1 °F 30.2 in Calm     66% 0 in 0 W/m2
01:24 58.3 °F 46.9 °F 30.2 in Calm     66% 0 in 0 W/m2
01:29 58.3 °F 46.9 °F 30.2 in Calm     66% 0 in 0 W/m2
01:34 58.3 °F 46.9 °F 30.2 in Calm     66% 0 in 0 W/m2
01:39 58.1 °F 47.1 °F 30.2 in Calm     67% 0 in 0 W/m2
01:44 58.1 °F 46.8 °F 30.2 in Calm     66% 0 in 0 W/m2
01:49 58.3 °F 46.9 °F 30.2 in Calm     66% 0 in 0 W/m2
01:54 58.5 °F 47.1 °F 30.2 in Calm     66% 0 in 0 W/m2
01:59 58.6 °F 46.9 °F 30.2 in Calm     65% 0 in 0 W/m2
02:04 58.8 °F 47.1 °F 30.2 in Calm     65% 0 in 0 W/m2
02:09 58.8 °F 47.1 °F 30.2 in Calm     65% 0 in 0 W/m2
02:14 59 °F 46.9 °F 30.2 in Calm     64% 0 in 0 W/m2
02:19 59 °F 46.9 °F 30.2 in Calm     64% 0 in 0 W/m2
02:24 58.8 °F 47.1 °F 30.2 in Calm     65% 0 in 0 W/m2
02:30 58.6 °F 47.3 °F 30.2 in Calm     66% 0 in 0 W/m2
02:35 58.5 °F 47.1 °F 30.2 in Calm     66% 0 in 0 W/m2
02:40 58.3 °F 46.9 °F 30.2 in Calm     66% 0 in 0 W/m2
02:45 58.1 °F 47.1 °F 30.2 in Calm     67% 0 in 0 W/m2
02:50 57.9 °F 46.9 °F 30.2 in Calm     67% 0 in 0 W/m2
02:55 57.7 °F 47.3 °F 30.2 in Calm     68% 0 in 0 W/m2
03:00 57.9 °F 47.5 °F 30.2 in Calm     68% 0 in 0 W/m2
03:05 58.1 °F 47.1 °F 30.2 in Calm     67% 0 in 0 W/m2
03:10 58.1 °F 47.1 °F 30.2 in Calm     67% 0 in 0 W/m2
03:15 58.1 °F 46.8 °F 30.2 in Calm     66% 0 in 0 W/m2
03:20 57.7 °F 46.9 °F 30.1 in Calm     67% 0 in 0 W/m2
03:25 57.4 °F 46.9 °F 30.1 in Calm     68% 0 in 0 W/m2
03:30 57 °F 47.3 °F 30.1 in Calm     70% 0 in 0 W/m2
03:35 57.4 °F 47.3 °F 30.1 in Calm     69% 0 in 0 W/m2
03:40 57.6 °F 47.5 °F 30.1 in Calm     69% 0 in 0 W/m2
03:45 57.7 °F 47.7 °F 30.1 in Calm     69% 0 in 0 W/m2
03:50 57.6 °F 47.5 °F 30.1 in Calm     69% 0 in 0 W/m2
03:55 57.6 °F 47.5 °F 30.1 in Calm     69% 0 in 0 W/m2
04:00 57.6 °F 47.5 °F 30.1 in Calm     69% 0 in 0 W/m2
04:05 57.4 °F 47.3 °F 30.1 in Calm     69% 0 in 0 W/m2
04:10 57.2 °F 47.5 °F 30.1 in Calm     70% 0 in 0 W/m2
04:15 57.2 °F 47.5 °F 30.1 in Calm     70% 0 in 0 W/m2
04:20 57 °F 47.7 °F 30.1 in Calm     71% 0 in 0 W/m2
04:25 57 °F 47.7 °F 30.1 in Calm     71% 0 in 0 W/m2
04:30 57 °F 48 °F 30.1 in Calm     72% 0 in 0 W/m2
04:35 57 °F 48 °F 30.1 in Calm     72% 0 in 0 W/m2
04:40 57.2 °F 47.8 °F 30.1 in Calm     71% 0 in 0 W/m2
04:45 57.2 °F 47.8 °F 30.1 in Calm     71% 0 in 0 W/m2
04:50 57.4 °F 48 °F 30.1 in Calm     71% 0 in 0 W/m2
04:55 57.4 °F 48 °F 30.1 in Calm     71% 0 in 0 W/m2
05:00 57.6 °F 48.2 °F 30.1 in Calm     71% 0 in 0 W/m2
05:05 57.6 °F 48.2 °F 30.1 in Calm     71% 0 in 0 W/m2
05:10 57.7 °F 48 °F 30.1 in Calm     70% 0 in 0 W/m2
05:15 57.7 °F 48 °F 30.1 in Calm     70% 0 in 0 W/m2
05:20 57.6 °F 48.2 °F 30.1 in Calm     71% 0 in 0 W/m2
05:25 57 °F 48.7 °F 30.1 in Calm     74% 0 in 0 W/m2
05:30 56.8 °F 48.9 °F 30.1 in Calm     75% 0 in 0 W/m2
05:35 56.7 °F 48.7 °F 30.1 in Calm     75% 0 in 0 W/m2
05:40 56.5 °F 48.9 °F 30.1 in Calm     76% 0 in 0 W/m2
05:45 56.3 °F 48.7 °F 30.1 in Calm     76% 0 in 0 W/m2
05:50 56.1 °F 48.9 °F 30.1 in Calm     77% 0 in 0 W/m2
05:55 55.9 °F 49.3 °F 30.1 in Calm     78% 0 in 0 W/m2
06:00 56.1 °F 49.5 °F 30.1 in Calm     78% 0 in 0 W/m2
06:05 56.5 °F 49.6 °F 30.1 in Calm     78% 0 in 0 W/m2
06:10 56.7 °F 49.8 °F 30.1 in Calm     78% 0 in 0 W/m2
06:15 56.5 °F 49.6 °F 30.1 in Calm     78% 0 in 0 W/m2
06:20 56.7 °F 49.8 °F 30.1 in Calm     78% 0 in 0 W/m2
06:25 56.8 °F 50.2 °F 30.1 in Calm     78% 0 in 0 W/m2
06:30 57 °F 50.2 °F 30.1 in Calm     78% 0 in 0 W/m2
06:35 57.4 °F 50.2 °F 30.1 in Calm     77% 0 in 0 W/m2
06:40 58.1 °F 50.9 °F 30.1 in Calm     77% 0 in 0 W/m2
06:45 58.8 °F 51.3 °F 30.1 in Calm     76% 0 in 0 W/m2
06:50 59.4 °F 50.7 °F 30.1 in Calm     73% 0 in 0 W/m2
06:55 59.2 °F 50.5 °F 30.1 in Calm     73% 0 in 0 W/m2
07:00 58.5 °F 50.5 °F 30.1 in Calm     75% 0 in 0 W/m2
07:05 57.9 °F 50.4 °F 30.1 in Calm     76% 0 in 0 W/m2
07:10 57.9 °F 50.4 °F 30.1 in Calm     76% 0 in 0 W/m2
07:15 57.7 °F 50.5 °F 30.1 in Calm     77% 0 in 0 W/m2
07:20 57.9 °F 50.7 °F 30.1 in Calm     77% 0 in 3 W/m2
07:25 57.9 °F 50.7 °F 30.1 in Calm     77% 0 in 4 W/m2
07:30 57.9 °F 50.7 °F 30.1 in Calm     77% 0 in 6 W/m2
07:35 58.1 °F 50.9 °F 30.1 in Calm     77% 0 in 9 W/m2
07:40 58.5 °F 51.3 °F 30.1 in Calm     77% 0 in 13 W/m2
07:45 59.4 °F 51.4 °F 30.1 in Calm     75% 0 in 16 W/m2
07:50 60.1 °F 51.8 °F 30.1 in Calm     74% 0 in 21 W/m2
07:55 60.4 °F 51.8 °F 30.1 in Calm     73% 0 in 22 W/m2
08:00 60.4 °F 51.8 °F 30.1 in Calm     73% 0 in 24 W/m2
08:05 60.6 °F 52 °F 30.1 in Calm     73% 0 in 24 W/m2
08:10 60.4 °F 51.8 °F 30.1 in Calm     73% 0 in 21 W/m2
08:15 60.4 °F 51.8 °F 30.1 in Calm     73% 0 in 20 W/m2
08:20 60.4 °F 51.8 °F 30.1 in Calm     73% 0 in 21 W/m2
08:22 60.4 °F 51.8 °F 30.1 in Calm     73% 0 in 23 W/m2
08:27 60.4 °F 51.8 °F 30 in Calm     73% 0 in 28 W/m2
08:32 60.8 °F 51.6 °F 30 in Calm     72% 0 in 34 W/m2
08:37 61 °F 51.4 °F 30.1 in Calm     71% 0 in 39 W/m2
08:42 61 °F 52 °F 30 in Calm     72% 0 in 35 W/m2
08:47 60.8 °F 51.6 °F 30 in Calm     72% 0 in 31 W/m2
08:52 61.2 °F 51.6 °F 30.1 in Calm     71% 0 in 30 W/m2
08:57 61.2 °F 52.2 °F 30 in Calm     72% 0 in 33 W/m2
09:02 61.2 °F 52.2 °F 30 in Calm     72% 0 in 40 W/m2
09:07 61.2 °F 52.2 °F 30 in Calm     72% 0 in 46 W/m2
09:12 61.7 °F 52.5 °F 30 in Calm     72% 0 in 61 W/m2
09:17 61.7 °F 52.5 °F 30 in Calm     72% 0 in 61 W/m2
09:22 61.9 °F 52.9 °F 30 in Calm     72% 0 in 54 W/m2
09:27 62.1 °F 52.9 °F 30 in Calm     72% 0 in 54 W/m2
09:32 62.2 °F 53.1 °F 30 in Calm     72% 0 in 54 W/m2
09:37 62.2 °F 53.1 °F 30 in Calm     72% 0 in 64 W/m2
09:42 62.2 °F 53.1 °F 30 in Calm     72% 0 in 71 W/m2
09:47 62.2 °F 53.1 °F 30 in Calm     72% 0 in 64 W/m2
09:53 62.1 °F 52.9 °F 30 in Calm     72% 0 in 67 W/m2
09:58 62.4 °F 53.8 °F 30 in Calm     73% 0 in 83 W/m2
10:03 63.1 °F 53.6 °F 30 in Calm     71% 0 in 84 W/m2
10:25 63.9 °F 54.3 °F 30 in Calm     71% 0 in 92 W/m2
10:30 63.9 °F 54.3 °F 30 in Calm     71% 0 in 83 W/m2
10:36 64 °F 54.5 °F 30 in Calm     71% 0 in 75 W/m2
10:41 64 °F 54.5 °F 30 in Calm     71% 0 in 82 W/m2
10:46 64.2 °F 54.7 °F 30 in Calm     71% 0 in 99 W/m2
10:51 64.2 °F 54.7 °F 30 in Calm     71% 0 in 116 W/m2
10:56 64.4 °F 54.3 °F 30 in Calm     70% 0 in 127 W/m2
11:01 64.4 °F 54.9 °F 30 in Calm     71% 0 in 119 W/m2
11:06 64.4 °F 54.9 °F 30 in Calm     71% 0 in 110 W/m2
11:11 64.4 °F 54.9 °F 30 in Calm     71% 0 in 125 W/m2
11:16 64.4 °F 54.9 °F 30 in Calm   0.7 mph 71% 0 in 131 W/m2
11:21 64.6 °F 55 °F 30 in Calm   0.7 mph 71% 0 in 140 W/m2
11:26 64.9 °F 55.8 °F 30 in Calm     72% 0 in 147 W/m2
11:31 64.9 °F 55.2 °F 30 in Calm     71% 0 in 171 W/m2
11:36 65.3 °F 55.2 °F 30 in Calm     70% 0 in 220 W/m2
11:41 65.7 °F 55.6 °F 30 in Calm     70% 0 in 244 W/m2
11:47 66.4 °F 55.6 °F 30 in Calm   0.7 mph 68% 0 in 320 W/m2
11:52 67.5 °F 56.7 °F 30 in Calm   0.7 mph 68% 0 in 315 W/m2
11:57 68.2 °F 55.9 °F 30 in Calm     65% 0 in 321 W/m2
12:00 68.2 °F 55.9 °F 30 in Calm     65% 0 in 284 W/m2
12:05 68.2 °F 55.9 °F 30 in Calm     65% 0 in 309 W/m2
12:10 68 °F 55.8 °F 30 in Calm     65% 0 in 272 W/m2
12:15 68 °F 56.1 °F 30 in Calm     66% 0 in 216 W/m2
12:20 68 °F 56.1 °F 29.9 in Calm     66% 0 in 232 W/m2
12:25 68 °F 56.1 °F 29.9 in Calm     66% 0 in 242 W/m2
12:30 67.8 °F 56.1 °F 29.9 in Calm     66% 0 in 287 W/m2
12:35 68.2 °F 56.5 °F 29.9 in Calm   0.7 mph 66% 0 in 260 W/m2
12:40 68 °F 55.8 °F 29.9 in Calm   0.7 mph 65% 0 in 202 W/m2
12:45 66.7 °F 55.6 °F 29.9 in Calm   0.7 mph 67% 0 in 191 W/m2
12:50 66.4 °F 55.9 °F 29.9 in Calm   0.7 mph 69% 0 in 208 W/m2
12:55 66.7 °F 55.9 °F 29.9 in Calm   0.7 mph 68% 0 in 189 W/m2
13:00 66.4 °F 55.9 °F 29.9 in Calm   0.7 mph 69% 0 in 152 W/m2
13:05 66.2 °F 56.1 °F 29.9 in Calm   0.7 mph 70% 0 in 175 W/m2
13:10 65.8 °F 57 °F 29.9 in Calm     73% 0 in 167 W/m2
13:15 65.7 °F 57.2 °F 29.9 in Calm   0.7 mph 74% 0 in 202 W/m2
13:34 66.6 °F 56.5 °F 29.9 in Calm     70% 0 in 193 W/m2
13:39 66.9 °F 56.8 °F 29.9 in Calm     70% 0 in 245 W/m2
13:44 67.5 °F 57 °F 29.9 in Calm     69% 0 in 215 W/m2
13:49 67.5 °F 56.7 °F 29.9 in Calm   0.7 mph 68% 0 in 174 W/m2
13:54 67.3 °F 56.8 °F 29.9 in Calm   0.7 mph 69% 0 in 173 W/m2
13:59 67.1 °F 56.7 °F 29.9 in Calm     69% 0 in 175 W/m2
14:04 67.1 °F 57 °F 29.9 in Calm     70% 0 in 176 W/m2
14:09 67.1 °F 57 °F 29.9 in Calm     70% 0 in 155 W/m2
14:14 66.9 °F 56.8 °F 29.9 in Calm     70% 0 in 166 W/m2
14:19 67.1 °F 57.4 °F 29.9 in Calm     71% 0 in 181 W/m2
14:24 67.3 °F 57.6 °F 29.9 in Calm     71% 0 in 157 W/m2
14:29 67.3 °F 57.6 °F 29.9 in Calm     71% 0 in 140 W/m2
14:34 67.1 °F 57.4 °F 29.9 in Calm     71% 0 in 137 W/m2
14:39 66.9 °F 57.2 °F 29.9 in Calm     71% 0 in 132 W/m2
14:45 66.7 °F 57.4 °F 29.9 in Calm     72% 0 in 128 W/m2
14:50 66.7 °F 57.4 °F 29.9 in Calm     72% 0 in 114 W/m2
14:55 66.7 °F 57.4 °F 29.9 in Calm     72% 0 in 119 W/m2
15:22 68.2 °F 57.6 °F 29.9 in NE 6.9 mph 9.2 mph 69% 0 in 96 W/m2
15:52 67.5 °F 56.5 °F 29.9 in East 7.6 mph 11.4 mph 68% 0 in 89 W/m2
15:57 67.5 °F 57 °F 29.9 in NE 6.9 mph 16.8 mph 69% 0 in 94 W/m2
16:02 67.3 °F 56.8 °F 29.9 in NE 6 mph 16.8 mph 69% 0 in 81 W/m2
16:07 67.3 °F 56.8 °F 29.9 in NE 6 mph 11.4 mph 69% 0 in 97 W/m2
16:12 67.3 °F 56.8 °F 29.9 in NE 10.7 mph 14.5 mph 69% 0 in 85 W/m2
16:17 67.3 °F 56.8 °F 29.9 in ENE 9.8 mph 14.5 mph 69% 0 in 72 W/m2
16:22 67.3 °F 56.8 °F 29.9 in ENE 6.9 mph 14.5 mph 69% 0 in 74 W/m2
16:27 67.3 °F 56.8 °F 29.9 in NE 5.4 mph 14.5 mph 69% 0 in 45 W/m2
16:32 66.9 °F 56.8 °F 29.9 in NE 6.9 mph 15.9 mph 70% 0 in 17 W/m2
16:37 66.6 °F 56.5 °F 29.9 in NE 6 mph 15.9 mph 70% 0 in 14 W/m2
16:42 66.4 °F 56.7 °F 29.9 in ENE 6.9 mph 12.1 mph 71% 0 in 13 W/m2
16:47 66.2 °F 56.8 °F 29.8 in ENE 11.4 mph 15.2 mph 72% 0 in 11 W/m2
16:52 66.2 °F 56.8 °F 29.8 in ENE 9.8 mph 15.2 mph 72% 0 in 9 W/m2
16:57 65.8 °F 57.4 °F 29.8 in ENE 4.5 mph 15.2 mph 74% 0 in 6 W/m2
17:02 65.5 °F 57.4 °F 29.8 in NE 5.4 mph 12.1 mph 75% 0 in 3 W/m2
17:07 65.3 °F 57.2 °F 29.8 in NE 6.9 mph 11.4 mph 75% 0 in 2 W/m2
17:12 65.3 °F 57.2 °F 29.8 in NE 5.4 mph 13 mph 75% 0 in 1 W/m2
17:17 65.3 °F 57.2 °F 29.8 in NE 8.3 mph 15.2 mph 75% 0 in 0 W/m2
17:22 65.3 °F 57.2 °F 29.8 in NE 7.6 mph 15.2 mph 75% 0 in 0 W/m2
17:27 65.3 °F 57.2 °F 29.8 in NE 6.9 mph 13.6 mph 75% 0 in 0 W/m2
17:32 65.1 °F 57 °F 29.8 in NE 6 mph 13.6 mph 75% 0 in 0 W/m2
17:37 65.1 °F 57 °F 29.8 in NE 6 mph 9.8 mph 75% 0 in 0 W/m2
17:42 65.1 °F 57 °F 29.8 in NE 6 mph 9.8 mph 75% 0 in 0 W/m2
17:47 65.1 °F 57 °F 29.8 in NE 2.2 mph 9.8 mph 75% 0 in 0 W/m2
17:52 65.1 °F 57.4 °F 29.8 in NE 3.1 mph 9.8 mph 76% 0 in 0 W/m2
17:57 65.1 °F 57.4 °F 29.8 in NE 4.5 mph 8.3 mph 76% 0 in 0 W/m2
18:02 64.9 °F 57.2 °F 29.8 in NE 3.8 mph 7.6 mph 76% 0 in 0 W/m2
18:07 64.9 °F 57.2 °F 29.8 in NE 3.8 mph 7.6 mph 76% 0 in 0 W/m2
18:12 64.9 °F 57.2 °F 29.8 in NE 5.4 mph 7.6 mph 76% 0 in 0 W/m2
18:17 65.1 °F 57.4 °F 29.8 in NE 2.2 mph 7.6 mph 76% 0 in 0 W/m2
18:22 65.1 °F 57.4 °F 29.8 in ENE 6 mph 11.4 mph 76% 0 in 0 W/m2
18:27 65.7 °F 57.9 °F 29.8 in NNE 3.8 mph 11.4 mph 76% 0 in 0 W/m2
18:32 65.8 °F 57.7 °F 29.8 in NNE 4.5 mph 12.1 mph 75% 0 in 0 W/m2
18:37 65.8 °F 57.7 °F 29.8 in NNE 6.9 mph 12.1 mph 75% 0 in 0 W/m2
18:42 66 °F 57.9 °F 29.8 in NNE 6 mph 13.6 mph 75% 0 in 0 W/m2
18:47 66.2 °F 57.7 °F 29.8 in NNE 5.4 mph 15.2 mph 74% 0 in 0 W/m2
18:52 66.4 °F 57.6 °F 29.8 in North 9.2 mph 17.4 mph 73% 0 in 0 W/m2
18:57 66.6 °F 57.4 °F 29.8 in North 6.9 mph 17.4 mph 72% 0 in 0 W/m2
19:02 66.6 °F 57.4 °F 29.8 in NNE 10.7 mph 17.4 mph 72% 0 in 0 W/m2
19:03 66.6 °F 57.4 °F 29.8 in NNE 10.7 mph 19 mph 72% 0 in 0 W/m2
19:08 66.6 °F 57.4 °F 29.8 in North 9.2 mph 19.7 mph 72% 0 in 0 W/m2
19:13 66.4 °F 57.6 °F 29.8 in North 7.6 mph 19.7 mph 73% 0 in 0 W/m2
19:18 66.4 °F 57.6 °F 29.8 in NNW 7.6 mph 17.4 mph 73% 0 in 0 W/m2
19:23 65.8 °F 57.7 °F 29.8 in NW 7.6 mph 17.4 mph 75% 0 in 0 W/m2
19:28 64.4 °F 57.7 °F 29.9 in WNW 4.5 mph 12.1 mph 79% 0 in 0 W/m2
19:33 63.1 °F 57.9 °F 29.9 in WNW 6.9 mph 12.1 mph 83% 0.01 in 0 W/m2
19:38 62.2 °F 57.9 °F 29.9 in WNW 6 mph 10.7 mph 86% 0.02 in 0 W/m2
19:43 61.7 °F 58.5 °F 29.9 in NW 2.2 mph 9.2 mph 89% 0.04 in 0 W/m2
19:48 61.3 °F 59 °F 29.9 in NNW 3.1 mph 7.6 mph 92% 0.04 in 0 W/m2
19:53 61.2 °F 58.8 °F 29.9 in NNE 1.6 mph 6.9 mph 92% 0.04 in 0 W/m2
19:58 61 °F 59 °F 29.9 in NNE 3.1 mph 6.9 mph 93% 0.04 in 0 W/m2
20:03 60.8 °F 59.2 °F 29.9 in North 2.2 mph 5.4 mph 94% 0.04 in 0 W/m2
20:08 60.8 °F 59.2 °F 29.9 in Calm   3.8 mph 94% 0.04 in 0 W/m2
20:13 60.8 °F 59.2 °F 29.8 in NNE 0.7 mph 3.8 mph 94% 0.04 in 0 W/m2
20:18 60.6 °F 59.5 °F 29.8 in Calm   3.8 mph 96% 0.04 in 0 W/m2
20:23 60.4 °F 59.4 °F 29.8 in Calm   3.8 mph 96% 0.04 in 0 W/m2
20:28 60.3 °F 59.2 °F 29.8 in SSW 3.8 mph 5.4 mph 96% 0.04 in 0 W/m2
20:33 60.1 °F 59 °F 29.8 in SSW 3.8 mph 5.4 mph 96% 0.02 in 0 W/m2
20:38 60.1 °F 59 °F 29.8 in South 2.2 mph 5.4 mph 96% 0.01 in 0 W/m2
20:43 59.9 °F 58.8 °F 29.8 in South 3.8 mph 6 mph 96% 0 in 0 W/m2
20:49 59.9 °F 58.8 °F 29.8 in SE 3.8 mph 6 mph 96% 0 in 0 W/m2
20:54 60.8 °F 59.2 °F 29.8 in North 0.7 mph 6 mph 94% 0 in 0 W/m2
20:59 61 °F 58.6 °F 29.8 in NE 1.6 mph 6 mph 92% 0 in 0 W/m2
21:04 61 °F 57.7 °F 29.8 in Calm   3.1 mph 89% 0 in 0 W/m2
21:09 60.8 °F 56.8 °F 29.8 in Calm   3.1 mph 87% 0 in 0 W/m2
21:14 60.6 °F 56.7 °F 29.8 in NNE 2.2 mph 3.8 mph 87% 0 in 0 W/m2
21:19 61.2 °F 56.3 °F 29.8 in North 1.6 mph 3.8 mph 84% 0 in 0 W/m2
21:24 61 °F 55.8 °F 29.8 in NNW 0.7 mph 3.8 mph 83% 0 in 0 W/m2
21:29 60.8 °F 55.6 °F 29.8 in West 0.7 mph 2.2 mph 83% 0 in 0 W/m2
21:34 60.6 °F 56.1 °F 29.8 in West 3.1 mph 4.5 mph 85% 0 in 0 W/m2
21:36 61 °F 56.1 °F 29.8 in WNW 1.6 mph 4.5 mph 84% 0 in 0 W/m2
21:41 61.2 °F 55.6 °F 29.8 in Calm   4.5 mph 82% 0 in 0 W/m2
21:46 60.8 °F 55.2 °F 29.8 in Calm   3.1 mph 82% 0 in 0 W/m2
21:51 59.9 °F 54.7 °F 29.8 in Calm   2.2 mph 83% 0 in 0 W/m2
21:56 59.5 °F 54.7 °F 29.8 in NE 2.2 mph 3.1 mph 84% 0 in 0 W/m2
22:01 59.7 °F 55.2 °F 29.8 in NE 0.7 mph 3.8 mph 85% 0 in 0 W/m2
22:06 59 °F 54.5 °F 29.8 in NNE 1.6 mph 3.8 mph 85% 0 in 0 W/m2
22:11 58.3 °F 54.3 °F 29.8 in North 2.2 mph 4.5 mph 87% 0 in 0 W/m2
22:16 58.3 °F 55 °F 29.8 in North 2.2 mph 6 mph 89% 0 in 0 W/m2
22:21 58.5 °F 55.6 °F 29.8 in NNE 2.2 mph 6 mph 90% 0 in 0 W/m2
22:26 58.6 °F 55.8 °F 29.8 in NNE 2.2 mph 4.5 mph 90% 0 in 0 W/m2
22:31 58.1 °F 54.9 °F 29.8 in North 1.6 mph 3.8 mph 89% 0 in 0 W/m2
22:36 58.3 °F 55.4 °F 29.8 in North 3.1 mph 4.5 mph 90% 0 in 0 W/m2
22:41 58.5 °F 55.6 °F 29.8 in North 2.2 mph 5.4 mph 90% 0 in 0 W/m2
22:46 58.5 °F 55.6 °F 29.8 in NNE 3.8 mph 5.4 mph 90% 0 in 0 W/m2
22:51 58.5 °F 55.6 °F 29.8 in North 3.8 mph 5.4 mph 90% 0 in 0 W/m2
22:56 58.5 °F 55.2 °F 29.8 in North 3.8 mph 5.4 mph 89% 0 in 0 W/m2
23:01 58.6 °F 55.4 °F 29.8 in NNW 2.2 mph 5.4 mph 89% 0 in 0 W/m2
23:06 58.8 °F 55.2 °F 29.8 in NNW 2.2 mph 5.4 mph 88% 0 in 0 W/m2
23:11 58.8 °F 55.2 °F 29.8 in NNW 3.1 mph 5.4 mph 88% 0 in 0 W/m2
23:16 59 °F 54.9 °F 29.8 in NNW 3.8 mph 5.4 mph 86% 0 in 0 W/m2
23:21 59.2 °F 54.7 °F 29.8 in NNW 2.2 mph 5.4 mph 85% 0 in 0 W/m2
23:26 58.8 °F 54.7 °F 29.8 in NNW 2.2 mph 4.5 mph 86% 0 in 0 W/m2
23:31 58.5 °F 54.3 °F 29.8 in NNW 2.2 mph 3.8 mph 86% 0 in 0 W/m2
23:36 57.9 °F 53.8 °F 29.8 in NW 1.6 mph 3.1 mph 86% 0 in 0 W/m2
23:41 57.7 °F 54 °F 29.8 in NW 1.6 mph 3.1 mph 87% 0 in 0 W/m2
23:46 57.7 °F 54.1 °F 29.8 in NW 0.7 mph 3.8 mph 88% 0 in 0 W/m2
23:51 57.7 °F 54 °F 29.8 in NW 0.7 mph 3.8 mph 87% 0 in 0 W/m2
Northern Hawkes Bay. New Zealand Historic Data
Compliments of Weather Underground - 2 mb